Flag for Germany Weather past 2 weeks in Wetzlar, Hesse, Germany

Now
48 °F

Clear.


Feels Like: 48 °F
Forecast: 27 / 60 °F
Wind: 2 mph from Northeast

Location: Giessen


UV Index: 3 (Moderate)

Visibility: 14 mi


Pressure: 30.39 "Hg

Humidity: 52%

Dew point: 31 °F

Location of WetzlarLocation

Historic Weather in Wetzlar

°F

Wetzlar temperature yesterday

Maximum temperature yesterday: 47 °F (at 5:00 PM)
Minimum temperature yesterday: 38 °F (at 5:00 AM)
Average temperature yesterday: 43 °F

Past Weeks' High & Low Weather Summary

 TemperatureHumidityPressure
High72 °F (Apr 3, 5:00 PM)98% (Apr 6, 7:00 AM)30.46 "Hg (Apr 6, 7:00 AM)
Low30 °F (Apr 16, 7:00 AM)33% (Apr 1, 8:00 PM)29.63 "Hg (Apr 3, 5:00 PM)
Average52 °F72%30.02 "Hg
* Reported Apr 1 8:00 PM — Apr 16 8:00 PM, Wetzlar, Weather by CustomWeather, © 2014

Note: Actual official high and low records may vary slightly from our data, if they occured in-between our weather recording intervals... More about our weather records

Advertising

Historic Weather Conditions — Data for Previous 24 hours

 ConditionsComfort  
Time TempWeatherWind HumidityBarometerVisibility
8:00 PM
Apr 16
51 °FSunny.3 mph47%30.37 "Hg43 mi
7:00 PM54 °FSunny.3 mph44%30.37 "Hg43 mi
6:00 PM53 °FScattered clouds.3 mph44%30.38 "Hg43 mi
5:00 PM53 °FPartly sunny.5 mph48%30.39 "Hg43 mi
4:00 PM56 °FOvercast.5 mph42%30.39 "Hg19 mi
3:00 PM53 °FPassing clouds.6 mph45%30.41 "Hg25 mi
2:00 PM54 °FScattered clouds.6 mph48%30.41 "Hg19 mi
1:00 PM51 °FScattered clouds.5 mph51%30.42 "Hg37 mi
12:00 PM50 °FSunny.3 mph57%30.44 "Hg28 mi
11:00 AM47 °FSunny.2 mph66%30.45 "Hg19 mi
10:00 AM43 °FSunny.5 mph75%30.45 "Hg19 mi
9:00 AM37 °FPassing clouds.1 mph83%30.46 "Hg11 mi
8:00 AM33 °FOvercast.1 mph89%30.45 "Hg10 mi
7:00 AM30 °FSunny.1 mph95%30.44 "Hg11 mi
6:00 AM34 °FClear.1 mph89%30.42 "Hg14 mi
5:00 AM31 °FClear.1 mph92%30.42 "Hg12 mi
4:00 AM33 °FClear.1 mph88%30.40 "Hg14 mi
3:00 AM35 °FClear.2 mph84%30.39 "Hg19 mi
12:00 AM37 °FClear.2 mph77%30.37 "Hg22 mi
11:00 PM
Apr 15
40 °FClear.1 mph68%30.35 "Hg25 mi
10:00 PM42 °FPassing clouds.2 mph63%30.33 "Hg28 mi
9:00 PM44 °FOvercast.2 mph58%30.31 "Hg31 mi
Weather by CustomWeather, © 2014

See weather overview